Location: Nairn
(57.5833°N, 3.8667°W)
Time: 05:40:12
(UTC+00:00)

Tiros 1 - Pass Details

Date: 01 October 2022
Orbit: 629 x 662 km, 48.4° (Epoch: 09 December)

Event Time Altitude Azimuth Distance (km) Brightness Sun altitude
Exits shadow 02:30:32 13° 121° (ESE) 1,848 9.6 -28.5°
Drops below altitude 10° 02:31:13 10° 116° (ESE) 2,058 9.9 -28.5°
Sets 02:33:50 0° 103° (ESE) 2,963 10.9 -28.2°
